NOVA 2

Last updated on Fri Jun 19 2026 20:04:44 GMT+0000 (Coordinated Universal Time)

1 19223U 88052A 26170.48864565 .00000069 00000+0 14438-3 0 9999 2 19223 89.9867 77.9633 0029168 210.5585 323.2952 13.22957325834430
UTC large
Height (km)
Speed (km/s)
/
Latitude / Longitude
Inclination (degrees)
Orbital Period (minutes)
Azimuth
Elevation
Range (km)
Doppler Factor

Next 0 passes for location: London (51.5072 / 0.1276)

Sorry there are no passes over London.
NOVA 2